CZ-3C DEB, 40818

Orbit data source: Space-Track

CZ-3C DEB, 40818 is space debris in HEO originally from a launch on Sun, 31 Oct 2010 UTC launched from the Xichang Space Center, China (XSC). Debris objects in space refer to the collection of defunct objects orbiting the Earth. Examples of debris include non-operational satellites, rocket bodies, and fragments generated from explosions, collisions, or faulty payload assembly.

Loading next visibility...
Identifier
40818, 2010-057AK
Orbit
HEO
Last TLE update
2 days ago
Origin
Manufacturer
CALT
Mission
Spacecraft
Bus & Motor
Unknown
Mass
Unknown
Launch date (UTC)
2010-10-31 (15 years ago)
Launch vehicle
Unknown
Launch site
Xichang Space Center, China (XSC)
Object type
Payload
Rocket body
Debris
Shape & HBR
Unknown
Radar Cross Section
Small (<0.1 m²)

Expand to show TLE details & history

TLE from 2 days ago
0 CZ-3C DEB
1 40818U 10057AK  25127.28443631  .00000070  00000-0  12674-2 0  9991
2 40818  20.0001 237.5986 7117534 267.0339  17.1752  2.25726253 83811
Epoch: 2025-05-07T06:49Z
Definitive object data (Epoch: 2025-05-07T06:49:35.297Z)
Latitude
-0°
Longitude
-90.20589°
Altitude
6,217.03 km
Speed
6.859 km/s
True Right ascension
15h 50m 15s
True Declination
0° 00' 00"
Sunlit
Object was in full shadow at TLE epoch
Visualization TLE readout
Latitude
19.8557°
Longitude
-8.64847°
Altitude
35,121.866 km
Speed
1.724 km/s
Apparent Right ascension
21h 41m 12s
Apparent Declination
13° 37' 03"
Sunlit
Object is in daylight
Visualization observer readout
Local Sidereal Time
13:37:31
Azimuth
58.999° ENE
Elevation
-13.411°
Doppler factor
1
Orbital elements
Apogee altitude
35,649.094 km
Perigee altitude
698.938 km
Semi-major axis
24,552.153 km
Eccentricity
0.7117534
Inclination
20.0001°
RAAN
237.5986°
Arg. of periapsis
267.0339°
True anomaly
93.31527°
Mean anomaly
17.1752°
Eccentric anomaly
47.00028°
Mean motion
0.56417 °/min
BSTAR
0.0012674
Orbital period
638.11 mins
Loading maneuver chart data...
Loading SW <> Apogee altitude chart data...
Loading historical data...
Loading historical data...
Loading historical data...
Loading historical data...
Loading historical data...
Loading historical data...
Loading historical data...

CZ-3C DEB Visibility forecast

Observer location: undefined°, undefined°

Span
Click to sort rows by Start time (UTC) header in descending order
Start Az.
Max El. time (UTC)
Max El. Az.
Max El.
End time (UTC)
End Az.
563 mins2025-05-09 12:14:51.095Z247.947° W2025-05-09 14:22:51.095Z245.936° WSW35.178°2025-05-09 21:37:51.095Z225.687° WSW
|